Regional Weather Roundup
Issued by NWS

Home | Current Version | Previous Version | Graphics & Text | Print | Product List | Glossary On
Versions: 1 2 3 4 5 6 7 8 9 10 11 12 13 14 15 16 17 18 19 20 21 22 23 24 25 26 27 28 29 30 31 32 33 34 35 36 37 38 39 40 41 42 43 44 45 46 47 48 49 50
000
ASUS45 KBOI 211410
RWRID
WEATHER ROUNDUP FOR IDAHO
NATIONAL WEATHER SERVICE BOISE ID
800 AM MDT THU AUG 21 2014

NOTE: "FAIR" INDICATES FEW OR NO CLOUDS BELOW 12000 FEET
WITH NO SIGNIFICANT WEATHER AND/OR OBSTRUCTIONS TO VISIBILITY

IDZ012-014-211500-
SOUTHWEST IDAHO


CITY           SKY/WX    TMP DP  RH WIND       PRES   REMARKS
BOISE          SUNNY     59  43  55 SE6       29.98R
CALDWELL       PTSUNNY   55  39  54 SE3       29.99R
MOUNTAIN HOME  SUNNY     63  59  87 SE10      29.98R
$$

IDZ016-017-211500-
SOUTHCENTRAL IDAHO


CITY           SKY/WX    TMP DP  RH WIND       PRES   REMARKS
BURLEY         CLOUDY    58  55  90 N5        30.03R
JEROME         PTSUNNY   58  56  93 NE10      30.03R
TWIN FALLS     CLOUDY    61  56  83 W5        30.03R
$$

IDZ019>023-211500-
SOUTHEAST IDAHO


CITY           SKY/WX    TMP DP  RH WIND       PRES   REMARKS
IDAHO FALLS    CLOUDY    58  55  90 S8        30.09R
POCATELLO      PTSUNNY   57  57 100 N5        30.08R
REXBURG        CLOUDY    55  53  93 CALM      30.09R
$$

IDZ006-010-011-018-031-032-211500-
CENTRAL IDAHO MOUNTAINS


CITY           SKY/WX    TMP DP  RH WIND       PRES   REMARKS
MCCALL         CLOUDY    48  44  86 CALM      30.03R
HAILEY         MOSUNNY   52  52 100 CALM      30.11R
STANLEY          N/A     45  43  93 CALM      30.13R
SALMON         MOSUNNY   52  50  93 CALM      30.06R
CHALLIS        CLOUDY    54  51  90 CALM      30.09R
$$

IDZ002-004-006-007-026-211500-
NORTHERN IDAHO


CITY           SKY/WX    TMP DP  RH WIND       PRES   REMARKS
LEWISTON       MOSUNNY   60  43  53 CALM      29.96R
LOWELL           N/A     56  53  90 N5        29.99R
COEUR D`ALENE  MOSUNNY   55  52  88 NE9       29.99R
MULLAN PASS    SUNNY     50  46  86 VRB5      30.08R
$$



USA.gov is the U.S. government's official web portal to all federal, state and local government web resources and services.